Location: *
(46.1006°N, 1.8394°E)
Time: 04:48:03
(UTC+00:00)

Cosmos 1544 - Pass Details

Date: 20 September 2019
Orbit: 475 x 491 km, 82.5° (Epoch: 17 October)

Event Time Altitude Azimuth Distance (km) Brightness Sun altitude
Rises 18:23:04 0° 172° (S) 2,513 6.5 -5.7°
Reaches altitude 10° 18:25:12 10° 165° (SSE) 1,641 5.5 -6.0°
Maximum altitude 18:28:36 42° 94° (E) 693 3.4 -6.6°
Drops below altitude 10° 18:32:02 10° 22° (NNE) 1,661 5.6 -7.2°
Sets 18:34:13 0° 16° (NNE) 2,547 6.7 -7.6°
